DW6567 Weather Reports


time (UTC)temp
C
wind
direction
speed
KPH
gust
KPH
rain 1hr
cm
rain 24hr
cm
rain mn
cm
humidity
%
barometer
mb
20260504043016 7 247 1.6 4.8 0.00 0.00 0.00 54 1012.6
20260504040041 7 0.0 0.0 0.00 0.00 0.00 55 1012.3
20260504033024 7 0.0 0.0 0.00 0.00 0.00 55
20260504030042 7 0.0 0.0 0.00 0.00 0.00 54
20260504023020 8 247 3.2 8.0 0.00 0.00 0.00 52 1012.4
20260504020021 8 270 3.2 6.4 0.00 0.00 0.00 51 1012.3
20260504013021 9 270 4.8 9.7 0.00 0.00 0.00 50 1012.2
20260504010041 9 270 4.8 11.3 0.00 0.00 0.00 47 1011.9
20260504003022 10 270 4.8 9.7 0.00 0.00 0.00 45 1011.5
20260504000025 -17 270 4.8 8.0 0.00 0.00 0.00 44
20260503233022 10 270 6.4 14.5 0.00 0.00 0.00 42
20260503230022 -17 270 6.4 17.7 0.00 0.00 0.00 39
20260503223023 11 270 8.0 16.1 0.00 0.00 0.00 36 1010.0
20260503220044 12 270 8.0 27.4 0.00 0.00 0.00 32 1009.8
20260503213043 12 270 6.4 16.1 0.00 0.00 0.00 33 1009.9
20260503210020 12 270 6.4 17.7 0.00 0.00 0.00 36 1009.9
20260503203023 12 270 6.4 16.1 0.00 0.00 0.00 36 1009.8
20260503200016 11 270 8.0 19.3 0.00 0.00 0.00 36
20260503193021 11 270 8.0 17.7 0.00 0.00 0.00 37
20260503190016 -17 270 6.4 17.7 0.00 0.00 0.00 41
20260503183021 11 270 6.4 16.1 0.00 0.00 0.00 41 1010.7
20260503180041 10 270 6.4 16.1 0.00 0.00 0.00 47 1010.6
20260503173024 8 270 4.8 12.9 0.00 0.00 0.00 48 1011.0
20260503053020 3 0.0 6.4 0.00 0.00 0.00 74 1011.6
20260503050016 3 22 1.6 6.4 0.00 0.00 0.00 72 1011.7